[[{"header":{"parameterUnit":"m.s-1","parameterCategory":1,"la1":30.2991,"la2":30.254,"lo1":-89.0895,"lo2":-89.0444,"dy":0.0017,"dx":0.0017,"nx":28,"ny":28,"refTime":"2025-08-21T09:00:00:Z","depth":0,"parameterNumber":2,"parameterNumberName":"U-component_of_WINDS"},"data":[0,0,0,0,0,0,0,0,0,0,0,0,0,0,0,0,0,0,0,0,0,0,0,0,0,0,0,0,0,0,0,0,0,0,0,0,0,0,0,0,0,0,0,0,0,0,0,0,0,0,0,0,0,0,0,0,0,0,0.3223,0.3223,0,0.3281,0.3281,0.3282,0.3293,0.3292,0.3292,0.3292,0.335,0.3351,0.3353,0,0,0,0,0,0,0,0,0,0,0,0,0,0.3121,0.3123,0.3223,0.3223,0.3224,0.328,0.3281,0.3282,0.3293,0.3292,0.3292,0.3291,0.3349,0.3351,0.3354,0,0,0,0,0,0,0,0,0,0,0,0,0,0.3171,0.3123,0.3223,0.3236,0.3238,0.328,0.3281,0.3282,0.3293,0.3292,0.3292,0.3291,0.3348,0.3351,0.3354,0.3386,0,0,0.3363,0.3364,0,0,0,0,0,0,0,0,0.3168,0.3174,0.3234,0.3236,0.3238,0.3279,0.3267,0.3317,0.3293,0.3272,0.3292,0.3291,0.3326,0.3331,0.3343,0.3389,0.3391,0.3363,0.3365,0.3366,0.3367,0,0,0,0,0,0,0,0.3164,0.3172,0.3246,0.3235,0.3237,0.3239,0.3246,0.3276,0.3302,0.3274,0.3275,0.3282,0.3327,0.3341,0.3345,0.3392,0.3363,0.3366,0.3368,0.3369,0.3467,0.3468,0,0,0,0,0,0,0.3158,0.3169,0.3244,0.3247,0.32,0.3242,0.3249,0.3266,0.3302,0.3307,0.3282,0.3282,0.3336,0.3341,0.3347,0.3387,0.3366,0.3369,0.3371,0.3466,0.3467,0.3468,0,0,0,0,0,0,0.3156,0.3165,0.3241,0.3208,0.3218,0.3244,0.3264,0.3268,0.3281,0.3308,0.3313,0.3291,0.3336,0.3343,0.3376,0.3389,0.337,0.3373,0.3465,0.3466,0.3468,0.3468,0,0,0,0,0,0,0.3153,0.3164,0.3177,0.3209,0.322,0.327,0.3265,0.3269,0.3286,0.3286,0.3318,0.3322,0.3336,0.3372,0.3379,0.3393,0.3375,0.3464,0.3466,0.3467,0.3467,0.3469,0.3471,0,0,0,0,0,0.315,0.3174,0.3177,0.3186,0.3236,0.3271,0.3277,0.3292,0.3287,0.33,0.3318,0.3321,0.3387,0.3375,0.3384,0.3399,0.3463,0.3465,0.3467,0.3466,0.3468,0.3471,0,0,0,0,0,0,0.3142,0.3178,0.3182,0.3218,0.3241,0.3272,0.3289,0.3295,0.3319,0.3318,0.3336,0.3343,0.3376,0.339,0.3377,0.3432,0.3425,0.3428,0.3421,0.3424,0.3425,0.3421,0.3378,0,0,0,0,0,0.3145,0.317,0.32,0.3228,0.324,0.3263,0.3278,0.3288,0.3312,0.3322,0.3342,0.3366,0.3392,0.3409,0.3434,0.3469,0.3476,0.3483,0.3485,0.3487,0.349,0.351,0.3514,0.3474,0.3474,0.3474,0,0,0.315,0.3173,0.3188,0.3228,0.3247,0.3272,0.3271,0.3298,0.3317,0.3326,0.3359,0.3375,0.3402,0.3437,0.3453,0.345,0.3502,0.3489,0.349,0.3492,0.3512,0.3516,0.3519,0.3475,0.3475,0.3475,0,0,0.3173,0.3193,0.3219,0.3238,0.3268,0.3283,0.3289,0.332,0.3331,0.3365,0.3372,0.3395,0.344,0.3459,0.3475,0.3506,0.351,0.3514,0.3524,0.3544,0.3547,0.355,0.3561,0.3565,0.3517,0.3517,0.3517,0,0.3175,0.3215,0.3231,0.3258,0.3276,0.3286,0.3313,0.3331,0.3367,0.3379,0.3375,0.3432,0.3451,0.349,0.3498,0.351,0.3518,0.351,0.3545,0.3548,0.3551,0.3562,0.3566,0.3517,0.3517,0.3517,0.3517,0,0.3217,0.3244,0.3262,0.3297,0.3316,0.3343,0.3364,0.3381,0.339,0.3405,0.3439,0.3463,0.3493,0.3504,0.3512,0.3545,0.3542,0.3542,0.3535,0.3555,0.3565,0.357,0.3517,0.3517,0.3517,0.3517,0,0,0.3235,0.3281,0.3287,0.3304,0.3337,0.3359,0.3386,0.3416,0.3431,0.3456,0.3479,0.3517,0.3517,0.3535,0.3545,0.3563,0.3586,0.356,0.3561,0.3564,0.3625,0.3625,0.3629,0.359,0.3591,0.3591,0.3622,0,0.3262,0.3312,0.3328,0.337,0.3395,0.3406,0.343,0.3453,0.3468,0.3492,0.3509,0.3535,0.3533,0.3544,0.3562,0.358,0.3599,0.3578,0.3612,0.3613,0.3604,0.3635,0.3635,0.3663,0.3627,0.3627,0.3628,0,0.33,0.3327,0.3371,0.3402,0.3413,0.3435,0.3464,0.3487,0.3514,0.3524,0.3544,0.3554,0.3583,0.3574,0.3615,0.36,0.3615,0.3626,0.3627,0.3631,0.3621,0.3639,0.3673,0.3677,0.3635,0.3634,0.3634,0,0.331,0.3356,0.3389,0.3403,0.344,0.3455,0.3471,0.3497,0.3515,0.3541,0.3553,0.3581,0.3597,0.3619,0.3636,0.3628,0.3675,0.3668,0.3684,0.3683,0.3693,0.3692,0.3729,0.3702,0.3702,0.3702,0.3702,0,0.3338,0.3365,0.3394,0.3414,0.3444,0.3462,0.3492,0.3508,0.3532,0.3555,0.3566,0.3588,0.3609,0.3633,0.3647,0.3678,0.3685,0.3694,0.3697,0.3693,0.3692,0.3703,0.3701,0.3703,0.3703,0.3703,0.3703,0,0.3353,0.3374,0.341,0.3444,0.3453,0.3473,0.3501,0.3521,0.3537,0.3567,0.3575,0.36,0.3629,0.3649,0.3686,0.3695,0.3729,0.3732,0.372,0.3722,0.3737,0.3735,0.3782,0.3789,0.3758,0.3758,0.3758,0,0.337,0.3391,0.3427,0.3444,0.346,0.3487,0.3506,0.3525,0.3543,0.3576,0.3592,0.3622,0.3648,0.3694,0.3715,0.3744,0.3748,0.3762,0.3752,0.3747,0.3748,0.3747,0.3749,0.3764,0.3764,0.3764,0.3764,0,0.3398,0.3407,0.3434,0.3464,0.3486,0.3511,0.3535,0.3548,0.3572,0.3592,0.3623,0.3643,0.3681,0.3711,0.3742,0.3759,0.3765,0.3767,0.3773,0.3768,0.3761,0.3766,0.3725,0.3766,0.3766,0.3766,0.3766,0.3766,0.3414,0.3434,0.3462,0.3492,0.3513,0.3536,0.3556,0.3575,0.3601,0.3635,0.3645,0.3677,0.3704,0.3746,0.3763,0.3788,0.3787,0.3794,0.3796,0.3798,0.3798,0.3757,0.3794,0.3794,0.3794,0.3794,0.3794,0,0.3442,0.3462,0.3489,0.3523,0.3547,0.3552,0.358,0.3599,0.3627,0.3652,0.3677,0.3712,0.3742,0.3766,0.3796,0.3812,0.3816,0.3819,0.3818,0.3822,0.3797,0.379,0.3816,0.3816,0.3816,0.3816,0.3816,0.3816,0.346,0.3493,0.3506,0.355,0.3569,0.3601,0.3617,0.3638,0.3658,0.3698,0.3723,0.3738,0.3763,0.3796,0.3823,0.3829,0.384,0.3843,0.385,0.3826,0.3824,0.3821,0.3815,0.3845,0.3845,0.3872,0.3873,0.3873]},{"header":{"parameterUnit":"m.s-1","parameterCategory":1,"la1":30.2991,"la2":30.254,"lo1":-89.0895,"lo2":-89.0444,"dy":0.0017,"dx":0.0017,"nx":28,"ny":28,"refTime":"2025-08-21T09:00:00:Z","depth":0,"parameterNumber":3,"parameterNumberName":"V-component_of_WINDS"},"data":[0,0,0,0,0,0,0,0,0,0,0,0,0,0,0,0,0,0,0,0,0,0,0,0,0,0,0,0,0,0,0,0,0,0,0,0,0,0,0,0,0,0,0,0,0,0,0,0,0,0,0,0,0,0,0,0,0,0,0.0642,0.0642,0,0.0723,0.0724,0.0725,0.0713,0.0711,0.071,0.0709,0.0794,0.0798,0.0801,0,0,0,0,0,0,0,0,0,0,0,0,0,0.0478,0.0481,0.0642,0.0643,0.0644,0.0723,0.0724,0.0725,0.0713,0.0711,0.071,0.0708,0.0793,0.0797,0.0802,0,0,0,0,0,0,0,0,0,0,0,0,0,0.0553,0.0482,0.0641,0.0647,0.0648,0.0723,0.0724,0.0725,0.0713,0.0711,0.0709,0.0707,0.0792,0.0797,0.0802,0.0877,0,0,0.0819,0.0821,0,0,0,0,0,0,0,0,0.0549,0.0559,0.0645,0.0647,0.0648,0.0706,0.0698,0.0776,0.0714,0.0689,0.0709,0.0706,0.0767,0.0774,0.0794,0.0881,0.0884,0.0819,0.0822,0.0825,0.0826,0,0,0,0,0,0,0,0.0544,0.0555,0.0674,0.0647,0.0648,0.0646,0.0655,0.0712,0.0738,0.0691,0.069,0.07,0.0767,0.0789,0.0796,0.0886,0.0819,0.0824,0.0827,0.0829,0.1037,0.1039,0,0,0,0,0,0,0.0536,0.0551,0.0671,0.0676,0.0592,0.0651,0.066,0.0689,0.0738,0.0743,0.0702,0.0699,0.0781,0.079,0.0799,0.0889,0.0825,0.083,0.0833,0.1035,0.1038,0.104,0,0,0,0,0,0,0.0533,0.0547,0.0668,0.0614,0.0629,0.0656,0.0689,0.0692,0.0714,0.0746,0.0751,0.0719,0.0779,0.0791,0.0857,0.0892,0.0832,0.0837,0.1032,0.1036,0.1039,0.107,0,0,0,0,0,0,0.0528,0.0546,0.0574,0.0614,0.0632,0.0725,0.0691,0.0695,0.0723,0.072,0.0763,0.0768,0.0779,0.0849,0.0862,0.0898,0.0841,0.1029,0.1034,0.1038,0.1066,0.1074,0.1081,0,0,0,0,0,0.0523,0.058,0.0576,0.059,0.0667,0.0727,0.0737,0.0747,0.0725,0.0754,0.0775,0.0767,0.0886,0.0856,0.0871,0.0909,0.1027,0.1032,0.1037,0.1062,0.1072,0.108,0,0,0,0,0,0,0.0545,0.0586,0.0581,0.0653,0.0686,0.0724,0.0761,0.0757,0.0797,0.0793,0.0805,0.0815,0.0881,0.0901,0.0868,0.0983,0.0953,0.0962,0.0967,0.0977,0.0984,0.0978,0.0846,0,0,0,0,0,0.0558,0.0602,0.0635,0.0696,0.0713,0.0734,0.076,0.0765,0.08,0.0814,0.084,0.0875,0.092,0.0949,0.0993,0.1068,0.1078,0.1101,0.1109,0.1115,0.1122,0.1163,0.1174,0.1057,0.1057,0.1057,0,0,0.0586,0.0614,0.0641,0.0701,0.0727,0.0773,0.0746,0.0796,0.083,0.0822,0.0886,0.0906,0.0945,0.1016,0.1049,0.1035,0.1156,0.1121,0.1126,0.113,0.117,0.1181,0.1191,0.1061,0.106,0.106,0,0,0.066,0.0686,0.0739,0.0765,0.0805,0.0818,0.0831,0.087,0.0882,0.0946,0.0941,0.0982,0.1059,0.1088,0.1112,0.1196,0.1191,0.121,0.125,0.129,0.1299,0.1307,0.1337,0.1348,0.1217,0.1217,0.1217,0,0.0691,0.0759,0.0767,0.0817,0.0844,0.0837,0.0892,0.0917,0.0969,0.0988,0.0972,0.1068,0.1095,0.1172,0.1192,0.1212,0.1228,0.1206,0.1297,0.1305,0.1313,0.1342,0.1353,0.122,0.1219,0.1219,0.1219,0,0.0794,0.0841,0.0879,0.0929,0.096,0.1012,0.1028,0.1059,0.1061,0.1076,0.1141,0.1172,0.1221,0.124,0.1243,0.1318,0.1308,0.1294,0.1265,0.1326,0.1354,0.1365,0.1223,0.1222,0.1221,0.1221,0,0,0.0886,0.0938,0.0952,0.0974,0.1017,0.1054,0.1106,0.1153,0.1179,0.1215,0.1259,0.1324,0.1311,0.1339,0.1344,0.138,0.1444,0.1361,0.1363,0.1376,0.1529,0.1539,0.1552,0.144,0.1442,0.1444,0.1526,0,0.0965,0.1055,0.1063,0.1145,0.1189,0.1183,0.1228,0.1259,0.1275,0.1315,0.1332,0.1378,0.1358,0.1374,0.1409,0.1429,0.1475,0.1423,0.1482,0.1484,0.1472,0.1566,0.1578,0.1653,0.1536,0.1538,0.1539,0,0.1069,0.1107,0.1192,0.1228,0.1247,0.1287,0.1331,0.1369,0.1405,0.1413,0.1444,0.1445,0.1498,0.1466,0.154,0.1504,0.1529,0.1542,0.1545,0.1552,0.1516,0.1576,0.1678,0.1689,0.1556,0.1555,0.1554,0,0.1128,0.12,0.126,0.128,0.1323,0.1352,0.1371,0.1404,0.1432,0.147,0.1488,0.1533,0.1557,0.1592,0.1604,0.158,0.1678,0.1647,0.1687,0.1687,0.1708,0.1707,0.1816,0.1723,0.1723,0.1723,0.1723,0,0.1215,0.1268,0.1287,0.1325,0.1383,0.1393,0.1451,0.1469,0.1498,0.1539,0.1537,0.1576,0.159,0.1631,0.1641,0.17,0.1712,0.172,0.1723,0.1721,0.172,0.1738,0.1733,0.1726,0.1725,0.1725,0.1724,0,0.1291,0.1306,0.1372,0.1407,0.1417,0.1459,0.149,0.1526,0.154,0.1592,0.1605,0.1628,0.1676,0.1691,0.175,0.1757,0.1826,0.1824,0.1814,0.1815,0.1854,0.185,0.1979,0.1996,0.1891,0.1892,0.1893,0,0.1346,0.1387,0.1426,0.1453,0.1473,0.1516,0.1544,0.1555,0.1584,0.1627,0.1658,0.1705,0.1744,0.1821,0.1843,0.1887,0.1886,0.1928,0.1893,0.189,0.1887,0.1885,0.1889,0.1935,0.1936,0.1937,0.1937,0,0.1443,0.1448,0.1488,0.153,0.1563,0.1598,0.1631,0.1653,0.1668,0.1701,0.175,0.178,0.1838,0.1886,0.1931,0.1951,0.1947,0.1948,0.196,0.1959,0.1952,0.1956,0.1832,0.1945,0.1945,0.1944,0.1944,0.1943,0.151,0.1546,0.1578,0.1623,0.1649,0.1679,0.1715,0.1733,0.1774,0.1822,0.1826,0.1878,0.1912,0.1972,0.1994,0.2036,0.2024,0.2041,0.2045,0.2049,0.2053,0.1944,0.2044,0.2044,0.2044,0.2044,0.2043,0,0.1607,0.1627,0.1668,0.1714,0.1749,0.1741,0.1776,0.1807,0.1853,0.1884,0.1922,0.1977,0.2023,0.2048,0.2093,0.2121,0.2121,0.2133,0.2131,0.2136,0.2061,0.2046,0.2133,0.2133,0.2133,0.2133,0.2133,0.2133,0.1661,0.172,0.1729,0.1801,0.1821,0.1872,0.1893,0.1922,0.1947,0.2009,0.2046,0.2062,0.2091,0.2138,0.218,0.2186,0.2203,0.2217,0.2222,0.2151,0.2142,0.2133,0.2119,0.222,0.222,0.2294,0.2294,0.2295]}]]